Tracking 35275 objects as of 8-Sep-2026
HD Live streaming from Space Station
objects crossing your sky now

STARLINK-31213

Track STARLINK-31213 now!
10-day predictions
STARLINK-31213 is classified as:


NORAD ID: 58860
Int'l Code: 2024-019H
Launch date: January 29, 2024
Source: United States (US)
Launch site: AIR FORCE EASTERN TEST RANGE (AFETR)
Your satellite tracking list
Your tracking list is empty




NASA's NSSDC Master Catalog

Two Line Element Set (TLE):
1 58860U 24019H   26251.18750321  .00000425  00000-0  24984-4 0  9998
2 58860  43.0035 298.2214 0001222 264.2583  95.8129 15.27581114146997
Source of the keplerian elements: AFSPC